QTR160 EKCH-OTHH

Flight info

Callsign QTR160
Flight time 6h 20m
Altitude 37000
Route SIMEG Z493 XELOL DCT KELEL DCT PERIT DCT ULMIN DCT ADORU UG80 EKI UL854 KULAR UT39 TOMBI DCT SAFTA L324 LAKTO L560 SILKA M872 BDB Y214 ASPUS Y432 LADBO T142 LAEEB
Aircraft B789/H-SDE1E2E3FGHIJ2J3J4J5M1RWXY/LB1D1

Departure

Time 2026-05-03 22:06
Airport Copenhagen Kastrup Airport (EKCH)

Arrival

Time 2026-05-04 04:26
Airport Hamad International Airport (OTHH)
Time Latitude Longitude Altitude Speed Heading
2026-05-03 21:16 55.62713 12.65249 31 ft 0 kts
2026-05-03 21:44 55.62703 12.65247 31 ft 2 kts
2026-05-03 21:45 55.62688 12.65245 31 ft 2 kts
2026-05-03 21:45 55.62673 12.65241 31 ft 2 kts
2026-05-03 21:45 55.62658 12.65244 31 ft 2 kts 323°
2026-05-03 21:45 55.62647 12.65262 31 ft 2 kts 316°
2026-05-03 21:46 55.62636 12.65281 31 ft 2 kts 320°
2026-05-03 21:46 55.62624 12.65297 31 ft 2 kts 320°
2026-05-03 21:46 55.62613 12.65315 31 ft 2 kts 330°
2026-05-03 21:46 55.62598 12.65322 31 ft 2 kts 359°
2026-05-03 21:47 55.62583 12.65324 31 ft 2 kts 354°
2026-05-03 21:47 55.62568 12.65326 31 ft 2 kts 358°
2026-05-03 21:47 55.62553 12.65327 31 ft 2 kts
2026-05-03 21:47 55.62538 12.65327 31 ft 2 kts
2026-05-03 21:48 55.62523 12.65326 31 ft 2 kts
2026-05-03 21:48 55.62508 12.65325 31 ft 2 kts
2026-05-03 21:48 55.62493 12.65325 31 ft 2 kts
2026-05-03 21:48 55.62478 12.65324 31 ft 2 kts
2026-05-03 21:49 55.62463 12.65324 31 ft 2 kts 356°
2026-05-03 21:49 55.62448 12.65329 31 ft 2 kts 335°
2026-05-03 21:49 55.62435 12.65343 31 ft 2 kts 307°
2026-05-03 21:49 55.62429 12.65368 31 ft 2 kts 269°
2026-05-03 21:50 55.62430 12.65394 31 ft 2 kts 265°
2026-05-03 21:50 55.62431 12.65421 31 ft 2 kts 269°
2026-05-03 21:50 55.62431 12.65443 31 ft 0 kts 269°
2026-05-03 21:58 55.62431 12.65438 31 ft 1 kts 270°
2026-05-03 21:58 55.62433 12.65390 31 ft 6 kts 275°
2026-05-03 21:59 55.62436 12.65298 31 ft 5 kts 271°
2026-05-03 21:59 55.62436 12.65270 31 ft 0 kts 268°
2026-05-03 21:59 55.62436 12.65267 31 ft 0 kts 267°
2026-05-03 22:00 55.62431 12.65246 31 ft 3 kts 242°
2026-05-03 22:00 55.62398 12.65210 31 ft 6 kts 197°
2026-05-03 22:00 55.62343 12.65205 31 ft 8 kts 181°
2026-05-03 22:00 55.62278 12.65204 31 ft 10 kts 182°
2026-05-03 22:01 55.62204 12.65170 31 ft 12 kts 208°
2026-05-03 22:01 55.62123 12.65080 31 ft 14 kts 212°
2026-05-03 22:01 55.62029 12.64974 31 ft 16 kts 213°
2026-05-03 22:01 55.61943 12.64873 31 ft 11 kts 214°
2026-05-03 22:02 55.61877 12.64796 31 ft 10 kts 213°
2026-05-03 22:02 55.61814 12.64725 31 ft 10 kts 213°
2026-05-03 22:02 55.61756 12.64659 31 ft 9 kts 213°
2026-05-03 22:02 55.61698 12.64593 31 ft 10 kts 213°
2026-05-03 22:03 55.61657 12.64490 31 ft 11 kts 253°
2026-05-03 22:03 55.61646 12.64327 31 ft 14 kts 264°
2026-05-03 22:03 55.61639 12.64144 31 ft 11 kts 262°
2026-05-03 22:03 55.61600 12.64032 31 ft 10 kts 220°
2026-05-03 22:04 55.61589 12.64016 31 ft 0 kts 220°
2026-05-03 22:05 55.61572 12.63991 31 ft 13 kts 220°
2026-05-03 22:06 55.61282 12.63542 31 ft 95 kts 222°
2026-05-03 22:06 55.60593 12.62466 33 ft 166 kts 222°
2026-05-03 22:06 55.59639 12.60992 628 ft 183 kts 223°
2026-05-03 22:06 55.58697 12.59563 1554 ft 180 kts 224°
2026-05-03 22:07 55.57744 12.58084 2258 ft 188 kts 224°
2026-05-03 22:07 55.56699 12.56703 3043 ft 193 kts 209°
2026-05-03 22:07 55.55308 12.55676 3032 ft 245 kts 202°
2026-05-03 22:07 55.54031 12.54838 3257 ft 271 kts 202°
2026-05-03 22:08 55.52545 12.53893 4186 ft 272 kts 202°
2026-05-03 22:08 55.51239 12.53064 5452 ft 256 kts 199°
2026-05-03 22:08 55.49859 12.52208 6415 ft 250 kts 204°
2026-05-03 22:08 55.48078 12.51081 7265 ft 255 kts 202°
2026-05-03 22:09 55.46455 12.50062 8068 ft 258 kts 202°
2026-05-03 22:09 55.46155 12.49881 8214 ft 259 kts 201°
2026-05-03 22:09 55.44352 12.49620 9017 ft 273 kts 170°
2026-05-03 22:10 55.41791 12.54506 10673 ft 295 kts 113°
2026-05-03 22:10 55.41155 12.57948 11422 ft 297 kts 112°
2026-05-03 22:10 55.40514 12.61570 11424 ft 329 kts 111°
2026-05-03 22:10 55.39808 12.65610 11665 ft 353 kts 110°
2026-05-03 22:11 55.39095 12.69769 12468 ft 359 kts 110°
2026-05-03 22:11 55.38376 12.73961 13330 ft 361 kts 110°
2026-05-03 22:11 55.37644 12.78218 14106 ft 366 kts 110°
2026-05-03 22:11 55.36897 12.82551 14849 ft 371 kts 110°
2026-05-03 22:12 55.36141 12.86928 15574 ft 376 kts 110°
2026-05-03 22:12 55.35382 12.91314 16272 ft 381 kts 110°
2026-05-03 22:12 55.34596 12.95838 16965 ft 385 kts 110°
2026-05-03 22:12 55.33813 13.00338 17632 ft 390 kts 110°
2026-05-03 22:13 55.33015 13.04909 18292 ft 394 kts 110°
2026-05-03 22:13 55.32205 13.09540 18934 ft 398 kts 110°
2026-05-03 22:13 55.31378 13.14252 19563 ft 402 kts 110°
2026-05-03 22:13 55.30545 13.18988 20171 ft 406 kts 110°
2026-05-03 22:14 55.29707 13.23743 20758 ft 410 kts 110°
2026-05-03 22:14 55.28860 13.28535 21319 ft 414 kts 110°
2026-05-03 22:14 55.28006 13.33374 21868 ft 418 kts 110°
2026-05-03 22:14 55.27148 13.38229 22402 ft 422 kts 110°
2026-05-03 22:15 55.26273 13.43150 22924 ft 426 kts 110°
2026-05-03 22:15 55.25250 13.48097 23408 ft 426 kts 121°
2026-05-03 22:15 55.23584 13.52263 23906 ft 424 kts 131°
2026-05-03 22:15 55.21730 13.56316 24409 ft 427 kts 133°
2026-05-03 22:16 55.19821 13.60344 24878 ft 431 kts 133°
2026-05-03 22:16 55.17884 13.64360 25345 ft 434 kts 134°
2026-05-03 22:16 55.15919 13.68384 25816 ft 437 kts 135°
2026-05-03 22:16 55.13935 13.72414 26261 ft 440 kts 135°
2026-05-03 22:17 55.11917 13.76486 26690 ft 444 kts 135°
2026-05-03 22:17 55.09891 13.80559 27115 ft 447 kts 135°
2026-05-03 22:17 55.07846 13.84656 27528 ft 451 kts 135°
2026-05-03 22:17 55.05772 13.88798 27933 ft 454 kts 135°
2026-05-03 22:18 55.03668 13.92990 28341 ft 457 kts 135°
2026-05-03 22:18 55.01568 13.97164 28768 ft 459 kts 135°
2026-05-03 22:18 54.99474 14.01319 29192 ft 461 kts 135°
2026-05-03 22:18 54.97339 14.05545 29611 ft 463 kts 135°
2026-05-03 22:19 54.95216 14.09738 30021 ft 465 kts 135°
2026-05-03 22:19 54.93070 14.13949 30401 ft 466 kts 137°
2026-05-03 22:19 54.90595 14.17644 30743 ft 462 kts 147°
2026-05-03 22:19 54.88001 14.20955 31092 ft 464 kts 147°
2026-05-03 22:20 54.85384 14.24227 31449 ft 466 kts 148°
2026-05-03 22:20 54.82741 14.27489 31852 ft 466 kts 148°
2026-05-03 22:20 54.80113 14.30707 32258 ft 465 kts 148°
2026-05-03 22:20 54.77461 14.33892 32618 ft 465 kts 149°
2026-05-03 22:21 54.74767 14.36977 32989 ft 465 kts 150°
2026-05-03 22:21 54.72063 14.40058 33357 ft 465 kts 150°
2026-05-03 22:21 54.69370 14.43113 33696 ft 465 kts 150°
2026-05-03 22:21 54.66662 14.46176 34041 ft 465 kts 150°
2026-05-03 22:22 54.63950 14.49235 34363 ft 465 kts 150°
2026-05-03 22:22 54.61278 14.52246 34704 ft 464 kts 150°
2026-05-03 22:22 54.58551 14.55312 35049 ft 463 kts 150°
2026-05-03 22:22 54.55824 14.58368 35345 ft 463 kts 150°
2026-05-03 22:23 54.53122 14.61396 35652 ft 463 kts 150°
2026-05-03 22:23 54.51054 14.63708 35884 ft 462 kts 150°
2026-05-03 22:23 54.49157 14.65828 36101 ft 461 kts 151°
2026-05-03 22:23 54.46472 14.68826 36403 ft 460 kts 151°
2026-05-03 22:24 54.43788 14.71812 36613 ft 461 kts 151°
2026-05-03 22:24 54.41086 14.74815 36830 ft 461 kts 151°
2026-05-03 22:24 54.38356 14.77842 36852 ft 467 kts 151°
2026-05-03 22:25 54.32824 14.83966 36875 ft 479 kts 151°
2026-05-03 22:25 54.27106 14.90395 36893 ft 493 kts 148°
2026-05-03 22:26 54.21475 14.97215 36884 ft 492 kts 148°
2026-05-03 22:26 54.15937 15.03922 36883 ft 486 kts 147°
2026-05-03 22:27 54.10432 15.10569 36885 ft 483 kts 147°
2026-05-03 22:27 54.04980 15.17137 36885 ft 482 kts 147°
2026-05-03 22:28 53.99448 15.23780 36886 ft 483 kts 147°
2026-05-03 22:28 53.93952 15.30357 36886 ft 483 kts 147°
2026-05-03 22:29 53.88402 15.36976 36885 ft 483 kts 147°
2026-05-03 22:29 53.82883 15.43535 36885 ft 483 kts 147°
2026-05-03 22:30 53.77417 15.50012 36886 ft 483 kts 147°
2026-05-03 22:30 53.72488 15.55833 36886 ft 483 kts 147°
2026-05-03 22:31 53.66973 15.62328 36886 ft 483 kts 147°
2026-05-03 22:31 53.61445 15.68816 36881 ft 482 kts 148°
2026-05-03 22:32 53.55885 15.75321 36882 ft 482 kts 148°
2026-05-03 22:32 53.50376 15.81743 36882 ft 482 kts 148°
2026-05-03 22:33 53.44865 15.88149 36883 ft 482 kts 148°
2026-05-03 22:33 53.39336 15.94555 36887 ft 482 kts 148°
2026-05-03 22:34 53.33769 16.00984 36903 ft 482 kts 148°
2026-05-03 22:34 53.29230 16.06210 36922 ft 482 kts 148°
2026-05-03 22:35 53.23680 16.12583 36938 ft 482 kts 148°
2026-05-03 22:35 53.18147 16.18915 36939 ft 483 kts 148°
2026-05-03 22:36 53.12579 16.25267 36940 ft 482 kts 148°
2026-05-03 22:36 53.07020 16.31587 36941 ft 489 kts 148°
2026-05-03 22:37 53.01349 16.38008 36944 ft 501 kts 148°
2026-05-03 22:37 52.95519 16.44583 36945 ft 512 kts 147°
2026-05-03 22:38 52.89647 16.51202 36944 ft 512 kts 147°
2026-05-03 22:38 52.83760 16.57815 36938 ft 510 kts 147°
2026-05-03 22:39 52.77905 16.64366 36940 ft 510 kts 147°
2026-05-03 22:39 52.72005 16.70945 36934 ft 510 kts 148°
2026-05-03 22:40 52.66145 16.77456 36935 ft 510 kts 148°
2026-05-03 22:40 52.60262 16.83969 36936 ft 508 kts 148°
2026-05-03 22:41 52.54459 16.90371 36936 ft 501 kts 148°
2026-05-03 22:41 52.48692 16.96716 36937 ft 496 kts 147°
2026-05-03 22:42 52.42977 17.02983 36938 ft 491 kts 147°
2026-05-03 22:42 52.37345 17.09145 36939 ft 489 kts 147°
2026-05-03 22:43 52.31673 17.15331 36940 ft 490 kts 147°
2026-05-03 22:43 52.25986 17.21512 36940 ft 490 kts 147°
2026-05-03 22:44 52.20316 17.27654 36940 ft 490 kts 147°
2026-05-03 22:44 52.14633 17.33791 36941 ft 490 kts 147°
2026-05-03 22:45 52.08979 17.39877 36942 ft 490 kts 147°
2026-05-03 22:45 52.03310 17.45960 36942 ft 490 kts 147°
2026-05-03 22:46 51.97609 17.52060 36943 ft 490 kts 147°
2026-05-03 22:46 51.91967 17.58077 36943 ft 490 kts 147°
2026-05-03 22:47 51.86283 17.64120 36938 ft 490 kts 147°
2026-05-03 22:47 51.80574 17.70173 36941 ft 489 kts 148°
2026-05-03 22:48 51.74880 17.76189 36961 ft 489 kts 148°
2026-05-03 22:48 51.69204 17.82168 36979 ft 490 kts 148°
2026-05-03 22:49 51.63482 17.88178 36990 ft 490 kts 148°
2026-05-03 22:49 51.57775 17.94153 36991 ft 489 kts 148°
2026-05-03 22:50 51.52058 18.00123 36991 ft 490 kts 148°
2026-05-03 22:50 51.46368 18.06043 36997 ft 490 kts 148°
2026-05-03 22:51 51.40668 18.11958 37004 ft 490 kts 148°
2026-05-03 22:51 51.34963 18.17860 37011 ft 489 kts 148°
2026-05-03 22:52 51.29282 18.23720 37035 ft 489 kts 148°
2026-05-03 22:52 51.23583 18.29579 37058 ft 490 kts 148°
2026-05-03 22:53 51.17847 18.35461 37075 ft 490 kts 148°
2026-05-03 22:53 51.12130 18.41304 37076 ft 490 kts 148°
2026-05-03 22:54 51.06417 18.47127 37077 ft 489 kts 148°
2026-05-03 22:54 51.00690 18.52946 37076 ft 493 kts 148°
2026-05-03 22:55 50.94835 18.58871 37082 ft 505 kts 148°
2026-05-03 22:55 50.88877 18.64881 37078 ft 516 kts 147°
2026-05-03 22:56 50.82797 18.71004 37067 ft 518 kts 148°
2026-05-03 22:56 50.76731 18.77097 37066 ft 516 kts 148°
2026-05-03 22:57 50.70702 18.83131 37069 ft 516 kts 148°
2026-05-03 22:57 50.64634 18.89186 37070 ft 516 kts 148°
2026-05-03 22:58 50.58566 18.95220 37071 ft 517 kts 148°
2026-05-03 22:58 50.52541 19.01189 37071 ft 513 kts 148°
2026-05-03 22:59 50.46537 19.07122 37074 ft 506 kts 148°
2026-05-03 22:59 50.40635 19.12936 37074 ft 502 kts 147°
2026-05-03 23:00 50.34737 19.18736 37077 ft 496 kts 147°
2026-05-03 23:00 50.28946 19.24408 37075 ft 494 kts 147°
2026-05-03 23:01 50.23121 19.30097 37075 ft 495 kts 147°
2026-05-03 23:01 50.17268 19.35798 37075 ft 495 kts 147°
2026-05-03 23:02 50.11429 19.41468 37074 ft 495 kts 147°
2026-05-03 23:02 50.05620 19.47093 37075 ft 495 kts 147°
2026-05-03 23:03 49.99774 19.52736 37078 ft 495 kts 147°
2026-05-03 23:03 49.93911 19.58380 37080 ft 495 kts 147°
2026-05-03 23:04 49.88065 19.63988 37073 ft 495 kts 147°
2026-05-03 23:04 49.82245 19.69560 37069 ft 495 kts 148°
2026-05-03 23:05 49.76400 19.75139 37066 ft 495 kts 148°
2026-05-03 23:05 49.70533 19.80722 37068 ft 495 kts 148°
2026-05-03 23:06 49.64701 19.86256 37075 ft 495 kts 148°
2026-05-03 23:06 49.58857 19.91784 37073 ft 495 kts 148°
2026-05-03 23:07 49.52988 19.97320 37107 ft 494 kts 148°
2026-05-03 23:07 49.47123 20.02838 37141 ft 496 kts 148°
2026-05-03 23:08 49.41262 20.08333 37155 ft 495 kts 148°
2026-05-03 23:08 49.35381 20.13835 37154 ft 495 kts 148°
2026-05-03 23:09 49.29549 20.19392 37157 ft 495 kts 147°
2026-05-03 23:09 49.23743 20.25078 37157 ft 495 kts 147°
2026-05-03 23:10 49.18743 20.29970 37168 ft 501 kts 147°
2026-05-03 23:10 49.13026 20.35553 37171 ft 515 kts 147°
2026-05-03 23:11 49.06886 20.41524 37167 ft 527 kts 147°
2026-05-03 23:11 49.01398 20.46853 37159 ft 529 kts 147°
2026-05-03 23:12 48.95167 20.52885 37161 ft 530 kts 146°
2026-05-03 23:12 48.88977 20.58861 37158 ft 530 kts 146°
2026-05-03 23:13 48.82711 20.64897 37152 ft 530 kts 146°
2026-05-03 23:13 48.76528 20.70834 37150 ft 530 kts 147°
2026-05-03 23:14 48.70268 20.76819 37151 ft 531 kts 147°
2026-05-03 23:14 48.64048 20.82757 37152 ft 530 kts 147°
2026-05-03 23:15 48.57824 20.88678 37154 ft 531 kts 147°
2026-05-03 23:15 48.51602 20.94577 37152 ft 527 kts 147°
2026-05-03 23:16 48.45436 21.00410 37155 ft 524 kts 147°
2026-05-03 23:16 48.39292 21.06200 37155 ft 520 kts 147°
2026-05-03 23:17 48.33123 21.12005 37154 ft 517 kts 147°
2026-05-03 23:17 48.27022 21.17723 37159 ft 517 kts 147°
2026-05-03 23:18 48.20882 21.23464 37158 ft 518 kts 147°
2026-05-03 23:18 48.14738 21.29190 37155 ft 517 kts 147°
2026-05-03 23:19 48.08634 21.34862 37157 ft 517 kts 147°
2026-05-03 23:19 48.02475 21.40573 37157 ft 517 kts 147°
2026-05-03 23:20 47.96330 21.46251 37159 ft 518 kts 147°
2026-05-03 23:20 47.90164 21.51935 37158 ft 517 kts 147°
2026-05-03 23:21 47.83992 21.57605 37151 ft 516 kts 147°
2026-05-03 23:21 47.77898 21.63227 37157 ft 517 kts 147°
2026-05-03 23:22 47.68691 21.71841 37152 ft 517 kts 147°
2026-05-03 23:22 47.62575 21.77552 37152 ft 517 kts 147°
2026-05-03 23:23 47.56456 21.83250 37155 ft 518 kts 147°
2026-05-03 23:23 47.50357 21.88913 37154 ft 517 kts 147°
2026-05-03 23:24 47.44214 21.94600 37153 ft 517 kts 147°
2026-05-03 23:24 47.38108 22.00239 37154 ft 517 kts 147°
2026-05-03 23:25 47.31984 22.05877 37155 ft 517 kts 147°
2026-05-03 23:25 47.25884 22.11479 37157 ft 517 kts 147°
2026-05-03 23:26 47.19784 22.17066 37158 ft 518 kts 147°
2026-05-03 23:26 47.13650 22.22668 37156 ft 518 kts 147°
2026-05-03 23:27 47.07535 22.28238 37158 ft 517 kts 147°
2026-05-03 23:27 47.01400 22.33810 37159 ft 517 kts 147°
2026-05-03 23:28 46.95285 22.39356 37158 ft 516 kts 148°
2026-05-03 23:28 46.89211 22.44844 37155 ft 513 kts 148°
2026-05-03 23:29 46.83121 22.50326 37149 ft 512 kts 148°
2026-05-03 23:29 46.77070 22.55759 37157 ft 512 kts 148°
2026-05-03 23:30 46.71016 22.61182 37153 ft 512 kts 148°
2026-05-03 23:30 46.64908 22.66644 37154 ft 513 kts 149°
2026-05-03 23:31 46.58836 22.72053 37151 ft 513 kts 149°
2026-05-03 23:31 46.52748 22.77467 37152 ft 513 kts 149°
2026-05-03 23:32 46.46666 22.82864 37158 ft 512 kts 149°
2026-05-03 23:32 46.40593 22.88246 37151 ft 510 kts 150°
2026-05-03 23:33 46.34575 22.93560 37152 ft 505 kts 151°
2026-05-03 23:33 46.28592 22.98820 37158 ft 499 kts 151°
2026-05-03 23:34 46.22752 23.03940 37152 ft 490 kts 152°
2026-05-03 23:34 46.16929 23.09030 37153 ft 490 kts 152°
2026-05-03 23:35 46.11121 23.14093 37156 ft 490 kts 152°
2026-05-03 23:35 46.05288 23.19172 37148 ft 490 kts 152°
2026-05-03 23:36 45.99484 23.24213 37153 ft 489 kts 152°
2026-05-03 23:36 45.93649 23.29270 37153 ft 490 kts 152°
2026-05-03 23:37 45.87816 23.34307 37158 ft 490 kts 152°
2026-05-03 23:37 45.81985 23.39339 37159 ft 489 kts 152°
2026-05-03 23:38 45.76112 23.44437 37156 ft 491 kts 152°
2026-05-03 23:38 45.70279 23.49491 37155 ft 490 kts 152°
2026-05-03 23:39 45.64458 23.54522 37164 ft 490 kts 152°
2026-05-03 23:39 45.58613 23.59563 37160 ft 490 kts 152°
2026-05-03 23:40 45.52793 23.64573 37156 ft 490 kts 152°
2026-05-03 23:40 45.46946 23.69589 37152 ft 489 kts 152°
2026-05-03 23:41 45.41103 23.74590 37152 ft 490 kts 153°
2026-05-03 23:41 45.35287 23.79561 37153 ft 489 kts 152°
2026-05-03 23:42 45.29407 23.84569 37154 ft 490 kts 152°
2026-05-03 23:42 45.23530 23.89565 37152 ft 490 kts 152°
2026-05-03 23:43 45.17651 23.94547 37151 ft 490 kts 152°
2026-05-03 23:43 45.11808 23.99492 37152 ft 490 kts 152°
2026-05-03 23:44 45.05920 24.04453 37156 ft 489 kts 152°
2026-05-03 23:44 45.00060 24.09382 37151 ft 488 kts 152°
2026-05-03 23:45 44.94198 24.14304 37153 ft 487 kts 152°
2026-05-03 23:45 44.88317 24.19237 37154 ft 488 kts 151°
2026-05-03 23:46 44.82463 24.24129 37156 ft 488 kts 152°
2026-05-03 23:46 44.76544 24.29067 37155 ft 488 kts 151°
2026-05-03 23:47 44.70647 24.33969 37160 ft 488 kts 151°
2026-05-03 23:47 44.64769 24.38847 37159 ft 488 kts 151°
2026-05-03 23:48 44.58920 24.43687 37153 ft 488 kts 151°
2026-05-03 23:48 44.52993 24.48583 37158 ft 488 kts 151°
2026-05-03 23:49 44.47125 24.53418 37153 ft 488 kts 151°
2026-05-03 23:49 44.41248 24.58246 37158 ft 488 kts 151°
2026-05-03 23:50 44.36357 24.62256 37158 ft 487 kts 151°
2026-05-03 23:50 44.29462 24.67898 37153 ft 487 kts 152°
2026-05-03 23:51 44.23545 24.72727 37152 ft 488 kts 152°
2026-05-03 23:51 44.17677 24.77509 37154 ft 487 kts 152°
2026-05-03 23:52 44.11783 24.82294 37154 ft 488 kts 152°
2026-05-03 23:52 44.05940 24.87026 37152 ft 487 kts 152°
2026-05-03 23:53 44.00096 24.91752 37152 ft 488 kts 152°
2026-05-03 23:53 43.94211 24.96498 37149 ft 488 kts 152°
2026-05-03 23:54 43.88247 25.01298 37154 ft 488 kts 152°
2026-05-03 23:54 43.82371 25.06017 37157 ft 488 kts 152°
2026-05-03 23:55 43.76424 25.10779 37150 ft 488 kts 152°
2026-05-03 23:55 43.70535 25.15487 37152 ft 487 kts 152°
2026-05-03 23:56 43.64667 25.20162 37154 ft 488 kts 152°
2026-05-03 23:56 43.58762 25.24867 37156 ft 487 kts 152°
2026-05-03 23:57 43.52829 25.29573 37153 ft 488 kts 152°
2026-05-03 23:57 43.46876 25.34290 37156 ft 487 kts 152°
2026-05-03 23:58 43.40945 25.38970 37155 ft 488 kts 152°
2026-05-03 23:58 43.35010 25.43652 37152 ft 488 kts 152°
2026-05-03 23:59 43.29087 25.48313 37151 ft 488 kts 152°
2026-05-03 23:59 43.23180 25.52941 37152 ft 488 kts 152°
2026-05-04 00:00 43.17248 25.57595 37153 ft 489 kts 151°
2026-05-04 00:00 43.11331 25.62211 37155 ft 487 kts 151°
2026-05-04 00:01 43.05442 25.66806 37144 ft 488 kts 152°
2026-05-04 00:01 42.99517 25.71414 37149 ft 490 kts 153°
2026-05-04 00:02 42.93579 25.76018 37150 ft 495 kts 152°
2026-05-04 00:02 42.87544 25.80693 37152 ft 500 kts 153°
2026-05-04 00:03 42.81484 25.85371 37153 ft 500 kts 153°
2026-05-04 00:03 42.75420 25.90045 37153 ft 499 kts 153°
2026-05-04 00:04 42.69360 25.94703 37153 ft 499 kts 153°
2026-05-04 00:04 42.63323 25.99335 37154 ft 499 kts 153°
2026-05-04 00:05 42.57248 26.03985 37154 ft 499 kts 153°
2026-05-04 00:05 42.51191 26.08611 37154 ft 499 kts 153°
2026-05-04 00:06 42.45135 26.13227 37154 ft 499 kts 153°
2026-05-04 00:06 42.39111 26.17806 37154 ft 499 kts 153°
2026-05-04 00:07 42.32983 26.22455 37155 ft 499 kts 153°
2026-05-04 00:07 42.26918 26.27046 37155 ft 499 kts 153°
2026-05-04 00:08 42.20874 26.31612 37151 ft 499 kts 153°
2026-05-04 00:08 42.14819 26.36174 37126 ft 499 kts 153°
2026-05-04 00:09 42.08712 26.40768 37089 ft 499 kts 153°
2026-05-04 00:09 42.02613 26.45343 37075 ft 499 kts 153°
2026-05-04 00:10 41.96565 26.49869 37075 ft 499 kts 153°
2026-05-04 00:10 41.90452 26.54435 37075 ft 499 kts 153°
2026-05-04 00:11 41.84554 26.59406 37083 ft 501 kts 147°
2026-05-04 00:11 41.78794 26.64827 37076 ft 501 kts 146°
2026-05-04 00:12 41.73116 26.70181 37071 ft 501 kts 147°
2026-05-04 00:12 41.67391 26.75574 37061 ft 501 kts 147°
2026-05-04 00:13 41.61690 26.80932 37044 ft 501 kts 147°
2026-05-04 00:13 41.55961 26.86307 37025 ft 501 kts 147°
2026-05-04 00:14 41.50285 26.91623 37019 ft 499 kts 147°
2026-05-04 00:14 41.44601 26.96936 37018 ft 494 kts 147°
2026-05-04 00:15 41.38968 27.02188 37024 ft 490 kts 148°
2026-05-04 00:15 41.33406 27.07360 37026 ft 485 kts 148°
2026-05-04 00:16 41.27906 27.12463 37020 ft 480 kts 148°
2026-05-04 00:16 41.22402 27.17557 37018 ft 480 kts 148°
2026-05-04 00:17 41.16888 27.22652 37018 ft 480 kts 148°
2026-05-04 00:17 41.11446 27.27670 37018 ft 480 kts 148°
2026-05-04 00:18 41.05951 27.32725 37018 ft 482 kts 148°
2026-05-04 00:18 41.00390 27.37830 37018 ft 484 kts 148°
2026-05-04 00:19 40.94728 27.42569 36993 ft 480 kts 158°
2026-05-04 00:19 40.88581 27.46010 37020 ft 480 kts 160°
2026-05-04 00:20 40.82415 27.49329 37022 ft 479 kts 160°
2026-05-04 00:20 40.76210 27.52619 37022 ft 479 kts 160°
2026-05-04 00:21 40.70003 27.55889 37022 ft 479 kts 160°
2026-05-04 00:21 40.63802 27.59143 37022 ft 479 kts 160°
2026-05-04 00:22 40.57597 27.62392 37022 ft 479 kts 160°
2026-05-04 00:22 40.51412 27.65635 37020 ft 479 kts 161°
2026-05-04 00:23 40.45176 27.68928 37015 ft 479 kts 161°
2026-05-04 00:23 40.38948 27.72210 37005 ft 479 kts 161°
2026-05-04 00:24 40.32788 27.75452 36994 ft 479 kts 161°
2026-05-04 00:24 40.26559 27.78723 36990 ft 479 kts 161°
2026-05-04 00:25 40.20378 27.81962 36990 ft 479 kts 161°
2026-05-04 00:25 40.14176 27.85207 36989 ft 479 kts 161°
2026-05-04 00:26 40.07939 27.88462 36989 ft 479 kts 161°
2026-05-04 00:26 40.01780 27.91671 36989 ft 479 kts 161°
2026-05-04 00:27 39.95538 27.94918 36989 ft 479 kts 161°
2026-05-04 00:27 39.89331 27.98139 36990 ft 479 kts 161°
2026-05-04 00:28 39.83167 28.01266 36993 ft 479 kts 161°
2026-05-04 00:28 39.76915 28.04396 36993 ft 479 kts 161°
2026-05-04 00:29 39.70690 28.07504 36993 ft 479 kts 161°
2026-05-04 00:29 39.64504 28.10585 36993 ft 479 kts 161°
2026-05-04 00:30 39.58264 28.13687 36993 ft 479 kts 161°
2026-05-04 00:30 39.52031 28.16779 36993 ft 479 kts 161°
2026-05-04 00:31 39.45847 28.19841 36992 ft 479 kts 161°
2026-05-04 00:31 39.39597 28.22930 36992 ft 479 kts 161°
2026-05-04 00:32 39.33373 28.26000 36992 ft 479 kts 161°
2026-05-04 00:32 39.27164 28.29048 36992 ft 479 kts 161°
2026-05-04 00:33 39.17851 28.33598 36992 ft 479 kts 161°
2026-05-04 00:34 39.11612 28.36639 36992 ft 479 kts 162°
2026-05-04 00:34 39.05378 28.39679 36992 ft 479 kts 161°
2026-05-04 00:35 39.01014 28.41876 36991 ft 480 kts 161°
2026-05-04 00:35 38.94780 28.45016 36993 ft 484 kts 161°
2026-05-04 00:36 38.88485 28.48183 36994 ft 488 kts 161°
2026-05-04 00:36 38.82152 28.51360 36995 ft 489 kts 161°
2026-05-04 00:37 38.75814 28.54538 36995 ft 488 kts 161°
2026-05-04 00:37 38.69514 28.57689 36991 ft 488 kts 161°
2026-05-04 00:38 38.63124 28.60881 36960 ft 488 kts 161°
2026-05-04 00:38 38.57021 28.64702 36956 ft 494 kts 149°
2026-05-04 00:39 38.51312 28.69630 36911 ft 494 kts 148°
2026-05-04 00:39 38.45673 28.74615 36909 ft 495 kts 148°
2026-05-04 00:40 38.40008 28.79653 36909 ft 495 kts 148°
2026-05-04 00:40 38.34300 28.84738 36894 ft 493 kts 148°
2026-05-04 00:41 38.28739 28.89688 36872 ft 490 kts 148°
2026-05-04 00:41 38.23140 28.94661 36849 ft 487 kts 148°
2026-05-04 00:42 38.17548 28.99619 36819 ft 485 kts 149°
2026-05-04 00:42 38.12036 29.04496 36802 ft 481 kts 149°
2026-05-04 00:43 38.07262 29.08711 36801 ft 481 kts 149°
2026-05-04 00:43 38.01790 29.13536 36801 ft 482 kts 149°
2026-05-04 00:44 37.97916 29.16947 36800 ft 482 kts 149°
2026-05-04 00:44 37.92421 29.21776 36800 ft 482 kts 149°
2026-05-04 00:45 37.86897 29.26624 36806 ft 482 kts 149°
2026-05-04 00:45 37.81381 29.31456 36806 ft 482 kts 149°
2026-05-04 00:46 37.75906 29.36246 36806 ft 482 kts 149°
2026-05-04 00:46 37.70346 29.41102 36806 ft 482 kts 149°
2026-05-04 00:47 37.64819 29.45920 36806 ft 482 kts 149°
2026-05-04 00:47 37.60250 29.49897 36806 ft 481 kts 149°
2026-05-04 00:48 37.53748 29.55543 36806 ft 482 kts 149°
2026-05-04 00:48 37.48218 29.60338 36806 ft 482 kts 149°
2026-05-04 00:49 37.42715 29.65098 36805 ft 482 kts 149°
2026-05-04 00:49 37.37174 29.69885 36800 ft 481 kts 149°
2026-05-04 00:50 37.31588 29.74704 36800 ft 481 kts 149°
2026-05-04 00:50 37.26111 29.79424 36800 ft 481 kts 149°
2026-05-04 00:51 37.20533 29.84223 36800 ft 481 kts 149°
2026-05-04 00:51 37.15012 29.88962 36800 ft 481 kts 149°
2026-05-04 00:52 37.09498 29.93690 36797 ft 481 kts 149°
2026-05-04 00:52 37.05176 29.97389 36777 ft 481 kts 149°
2026-05-04 00:53 36.99666 30.02101 36745 ft 481 kts 148°
2026-05-04 00:53 36.94113 30.06844 36720 ft 480 kts 148°
2026-05-04 00:54 36.88587 30.11563 36728 ft 486 kts 148°
2026-05-04 00:54 36.82973 30.16340 36723 ft 487 kts 148°
2026-05-04 00:55 36.77416 30.21054 36724 ft 486 kts 148°
2026-05-04 00:55 36.71811 30.25800 36723 ft 486 kts 148°
2026-05-04 00:56 36.66192 30.30550 36724 ft 486 kts 148°
2026-05-04 00:56 36.60599 30.35266 36724 ft 486 kts 148°
2026-05-04 00:57 36.56587 30.38646 36723 ft 486 kts 148°
2026-05-04 00:57 36.51627 30.42817 36723 ft 486 kts 148°
2026-05-04 00:58 36.46028 30.47518 36723 ft 486 kts 148°
2026-05-04 00:58 36.40418 30.52220 36723 ft 486 kts 148°
2026-05-04 00:59 36.38509 30.53819 36722 ft 486 kts 148°
2026-05-04 00:59 36.36151 30.55791 36723 ft 486 kts 148°
2026-05-04 01:00 36.30553 30.60469 36723 ft 486 kts 148°
2026-05-04 01:00 36.24011 30.65924 36721 ft 486 kts 148°
2026-05-04 01:01 36.18424 30.70576 36719 ft 486 kts 149°
2026-05-04 01:01 36.12844 30.75210 36719 ft 486 kts 148°
2026-05-04 01:02 36.07223 30.79874 36719 ft 486 kts 149°
2026-05-04 01:02 36.02731 30.83000 36715 ft 481 kts 158°
2026-05-04 01:03 35.96636 30.86330 36719 ft 482 kts 159°
2026-05-04 01:03 35.91264 30.89191 36718 ft 482 kts 159°
2026-05-04 01:04 35.85124 30.92430 36723 ft 482 kts 159°
2026-05-04 01:04 35.82038 30.94051 36876 ft 481 kts 159°
2026-05-04 01:04 35.78985 30.95652 37049 ft 482 kts 159°
2026-05-04 01:04 35.75920 30.97256 37224 ft 482 kts 159°
2026-05-04 01:05 35.72840 30.98866 37396 ft 483 kts 159°
2026-05-04 01:05 35.69758 31.00477 37569 ft 483 kts 159°
2026-05-04 01:05 35.66680 31.02083 37740 ft 483 kts 159°
2026-05-04 01:05 35.63598 31.03691 37911 ft 483 kts 159°
2026-05-04 01:06 35.60508 31.05300 38083 ft 483 kts 159°
2026-05-04 01:06 35.57431 31.06901 38254 ft 483 kts 159°
2026-05-04 01:06 35.54321 31.08518 38426 ft 483 kts 159°
2026-05-04 01:06 35.51238 31.10121 38597 ft 483 kts 159°
2026-05-04 01:07 35.48155 31.11720 38768 ft 483 kts 159°
2026-05-04 01:07 35.45086 31.13313 38939 ft 483 kts 159°
2026-05-04 01:07 35.41979 31.14924 39112 ft 483 kts 159°
2026-05-04 01:07 35.38860 31.16538 39285 ft 483 kts 159°
2026-05-04 01:08 35.35804 31.18119 39453 ft 483 kts 159°
2026-05-04 01:08 35.32709 31.19719 39623 ft 483 kts 159°
2026-05-04 01:08 35.29557 31.21348 39800 ft 483 kts 159°
2026-05-04 01:08 35.26476 31.22937 39970 ft 484 kts 159°
2026-05-04 01:09 35.23385 31.24531 40138 ft 483 kts 159°
2026-05-04 01:09 35.20262 31.26140 40311 ft 483 kts 159°
2026-05-04 01:09 35.17166 31.27735 40479 ft 483 kts 159°
2026-05-04 01:09 35.14066 31.29328 40646 ft 483 kts 159°
2026-05-04 01:10 35.10959 31.30925 40816 ft 483 kts 159°
2026-05-04 01:10 35.07901 31.32495 40984 ft 483 kts 159°
2026-05-04 01:10 35.04755 31.34110 41154 ft 483 kts 159°
2026-05-04 01:10 35.01660 31.35702 41324 ft 483 kts 160°
2026-05-04 01:11 34.98596 31.37287 41488 ft 483 kts 161°
2026-05-04 01:11 34.95450 31.38909 41652 ft 484 kts 162°
2026-05-04 01:11 34.92379 31.40487 41811 ft 484 kts 163°
2026-05-04 01:11 34.89290 31.42069 41965 ft 484 kts 164°
2026-05-04 01:12 34.86130 31.43680 42133 ft 484 kts 165°
2026-05-04 01:12 34.83043 31.45239 42317 ft 483 kts 165°
2026-05-04 01:12 34.79950 31.46805 42495 ft 483 kts 165°
2026-05-04 01:12 34.76851 31.48376 42674 ft 482 kts 165°
2026-05-04 01:13 34.73764 31.49943 42854 ft 481 kts 165°
2026-05-04 01:13 34.70678 31.51510 43000 ft 481 kts 165°
2026-05-04 01:13 34.68611 31.52557 43001 ft 483 kts 165°
2026-05-04 01:14 34.61342 31.56242 43012 ft 490 kts 165°
2026-05-04 01:14 34.54967 31.59468 43013 ft 497 kts 164°
2026-05-04 01:15 34.48586 31.62695 43012 ft 504 kts 164°
2026-05-04 01:15 34.43258 31.65388 43006 ft 505 kts 165°
2026-05-04 01:16 34.36187 31.68957 42992 ft 502 kts 165°
2026-05-04 01:16 34.29739 31.72200 42993 ft 502 kts 165°
2026-05-04 01:17 34.25547 31.74308 42993 ft 503 kts 165°
2026-05-04 01:17 34.19598 31.77293 42995 ft 504 kts 165°
2026-05-04 01:17 34.16363 31.78915 42848 ft 505 kts 165°
2026-05-04 01:18 34.13117 31.80542 42830 ft 502 kts 165°
2026-05-04 01:18 34.06648 31.83777 42828 ft 503 kts 165°
2026-05-04 01:19 34.01018 31.86589 42825 ft 504 kts 165°
2026-05-04 01:19 33.94553 31.89814 42827 ft 503 kts 165°
2026-05-04 01:20 33.88115 31.93019 42826 ft 503 kts 165°
2026-05-04 01:20 33.81673 31.96222 42827 ft 503 kts 165°
2026-05-04 01:21 33.75214 31.99428 42830 ft 503 kts 165°
2026-05-04 01:21 33.68780 32.02615 42831 ft 503 kts 165°
2026-05-04 01:22 33.62333 32.05805 42830 ft 503 kts 165°
2026-05-04 01:22 33.55880 32.08991 42828 ft 503 kts 165°
2026-05-04 01:23 33.49431 32.12171 42831 ft 504 kts 165°
2026-05-04 01:23 33.42977 32.15348 42831 ft 503 kts 165°
2026-05-04 01:24 33.36506 32.18529 42834 ft 502 kts 165°
2026-05-04 01:24 33.30082 32.21681 42858 ft 502 kts 165°
2026-05-04 01:25 33.23616 32.24848 42885 ft 503 kts 165°
2026-05-04 01:25 33.17168 32.28003 42909 ft 503 kts 165°
2026-05-04 01:26 33.10699 32.31162 42932 ft 503 kts 165°
2026-05-04 01:26 33.04240 32.34326 42957 ft 506 kts 166°
2026-05-04 01:27 32.97754 32.37490 42978 ft 508 kts 167°
2026-05-04 01:27 32.91237 32.40650 43005 ft 509 kts 168°
2026-05-04 01:28 32.84650 32.43836 43008 ft 510 kts 168°
2026-05-04 01:28 32.78092 32.47010 43009 ft 508 kts 168°
2026-05-04 01:29 32.71567 32.50165 43010 ft 508 kts 168°
2026-05-04 01:29 32.65061 32.53306 43010 ft 508 kts 168°
2026-05-04 01:30 32.58520 32.56459 43009 ft 508 kts 168°
2026-05-04 01:30 32.52014 32.59591 43012 ft 509 kts 168°
2026-05-04 01:31 32.45440 32.62751 43012 ft 508 kts 168°
2026-05-04 01:31 32.38852 32.65914 43006 ft 507 kts 168°
2026-05-04 01:32 32.32336 32.69034 43012 ft 508 kts 168°
2026-05-04 01:32 32.26842 32.71662 43014 ft 508 kts 168°
2026-05-04 01:33 32.19226 32.75302 43037 ft 508 kts 168°
2026-05-04 01:33 32.12707 32.78410 43037 ft 508 kts 168°
2026-05-04 01:34 32.07211 32.81027 43038 ft 508 kts 168°
2026-05-04 01:34 31.99565 32.84662 43045 ft 507 kts 168°
2026-05-04 01:35 31.93038 32.87761 43042 ft 509 kts 168°
2026-05-04 01:35 31.86417 32.90897 43044 ft 509 kts 168°
2026-05-04 01:36 31.80943 32.93486 43047 ft 511 kts 168°
2026-05-04 01:36 31.73249 32.97124 43044 ft 510 kts 168°
2026-05-04 01:37 31.68407 32.99406 43049 ft 512 kts 168°
2026-05-04 01:37 31.61800 33.02519 43047 ft 515 kts 168°
2026-05-04 01:38 31.55165 33.05643 43042 ft 514 kts 167°
2026-05-04 01:38 31.48564 33.08741 43048 ft 517 kts 167°
2026-05-04 01:39 31.43025 33.11340 43047 ft 517 kts 167°
2026-05-04 01:39 31.35194 33.14870 43039 ft 512 kts 171°
2026-05-04 01:40 31.28467 33.17514 43049 ft 512 kts 171°
2026-05-04 01:40 31.21739 33.20140 43052 ft 512 kts 171°
2026-05-04 01:41 31.14985 33.22770 43048 ft 511 kts 171°
2026-05-04 01:41 31.09368 33.24954 43052 ft 511 kts 171°
2026-05-04 01:42 31.01527 33.27994 43049 ft 511 kts 171°
2026-05-04 01:42 30.94820 33.30583 43050 ft 514 kts 170°
2026-05-04 01:43 30.88029 33.33204 43054 ft 517 kts 169°
2026-05-04 01:43 30.81204 33.35846 43052 ft 517 kts 169°
2026-05-04 01:44 30.74429 33.38462 43054 ft 516 kts 169°
2026-05-04 01:44 30.67657 33.41070 43053 ft 516 kts 169°
2026-05-04 01:45 30.60828 33.43696 43053 ft 516 kts 169°
2026-05-04 01:45 30.50649 33.47602 43055 ft 517 kts 169°
2026-05-04 01:46 30.44986 33.49771 43053 ft 517 kts 169°
2026-05-04 01:46 30.37064 33.52800 43056 ft 517 kts 169°
2026-05-04 01:47 30.31394 33.54966 43058 ft 517 kts 169°
2026-05-04 01:47 30.23461 33.57992 43054 ft 516 kts 169°
2026-05-04 01:48 30.16651 33.60585 43057 ft 517 kts 169°
2026-05-04 01:48 30.10995 33.62735 43057 ft 517 kts 169°
2026-05-04 01:49 30.03058 33.65749 43044 ft 517 kts 170°
2026-05-04 01:49 29.96282 33.68318 43038 ft 515 kts 170°
2026-05-04 01:50 29.89467 33.70899 43040 ft 515 kts 170°
2026-05-04 01:50 29.82793 33.73424 43033 ft 516 kts 170°
2026-05-04 01:51 29.75993 33.75992 43025 ft 516 kts 170°
2026-05-04 01:51 29.70312 33.78136 43026 ft 516 kts 170°
2026-05-04 01:52 29.62381 33.81124 43036 ft 516 kts 170°
2026-05-04 01:52 29.55568 33.83688 43044 ft 517 kts 170°
2026-05-04 01:53 29.48751 33.86253 43043 ft 515 kts 170°
2026-05-04 01:53 29.41945 33.88808 43044 ft 516 kts 170°
2026-05-04 01:54 29.35143 33.91359 43044 ft 516 kts 170°
2026-05-04 01:54 29.28358 33.93899 43045 ft 516 kts 170°
2026-05-04 01:55 29.21503 33.96461 43031 ft 517 kts 170°
2026-05-04 01:55 29.15848 33.98576 43014 ft 515 kts 170°
2026-05-04 01:56 29.09046 34.01109 43006 ft 516 kts 170°
2026-05-04 01:56 29.01060 34.04070 42978 ft 518 kts 169°
2026-05-04 01:57 28.94237 34.06605 42942 ft 517 kts 168°
2026-05-04 01:57 28.88509 34.08741 42939 ft 517 kts 168°
2026-05-04 01:58 28.80582 34.11686 42941 ft 517 kts 168°
2026-05-04 01:58 28.73774 34.14208 42939 ft 517 kts 168°
2026-05-04 01:59 28.66923 34.16742 42939 ft 517 kts 168°
2026-05-04 01:59 28.60123 34.19253 42940 ft 517 kts 168°
2026-05-04 02:00 28.53334 34.21757 42940 ft 517 kts 168°
2026-05-04 02:00 28.47627 34.23859 42941 ft 517 kts 168°
2026-05-04 02:01 28.39855 34.27508 42983 ft 533 kts 148°
2026-05-04 02:01 28.34314 34.33157 42963 ft 545 kts 137°
2026-05-04 02:02 28.29106 34.39454 42944 ft 544 kts 137°
2026-05-04 02:02 28.23904 34.45661 42944 ft 543 kts 137°
2026-05-04 02:03 28.19591 34.50779 42945 ft 543 kts 137°
2026-05-04 02:03 28.13479 34.58009 42946 ft 543 kts 137°
2026-05-04 02:04 28.08245 34.64187 42947 ft 543 kts 137°
2026-05-04 02:04 28.03012 34.70355 42934 ft 542 kts 138°
2026-05-04 02:05 27.97760 34.76534 42935 ft 543 kts 138°
2026-05-04 02:05 27.93398 34.81658 42935 ft 543 kts 138°
2026-05-04 02:06 27.87273 34.88840 42934 ft 545 kts 137°
2026-05-04 02:06 27.81990 34.95026 42935 ft 547 kts 137°
2026-05-04 02:07 27.76688 35.01228 42995 ft 549 kts 137°
2026-05-04 02:07 27.71403 35.07401 42993 ft 549 kts 137°
2026-05-04 02:08 27.66078 35.13615 42994 ft 549 kts 137°
2026-05-04 02:08 27.61661 35.18759 42993 ft 549 kts 137°
2026-05-04 02:09 27.55443 35.25989 42996 ft 549 kts 137°
2026-05-04 02:09 27.51006 35.31141 42995 ft 549 kts 137°
2026-05-04 02:10 27.44811 35.38325 42959 ft 549 kts 137°
2026-05-04 02:10 27.40350 35.43488 42929 ft 549 kts 137°
2026-05-04 02:11 27.34157 35.50647 42891 ft 549 kts 137°
2026-05-04 02:11 27.28835 35.56791 42903 ft 548 kts 137°
2026-05-04 02:12 27.23492 35.62947 42906 ft 549 kts 137°
2026-05-04 02:12 27.18173 35.69070 42878 ft 548 kts 138°
2026-05-04 02:13 27.12803 35.75241 42881 ft 548 kts 137°
2026-05-04 02:13 27.08364 35.80330 42883 ft 549 kts 137°
2026-05-04 02:14 27.03119 35.86345 42883 ft 548 kts 138°
2026-05-04 02:14 26.97818 35.92407 42884 ft 545 kts 137°
2026-05-04 02:15 26.91999 35.99054 42884 ft 540 kts 137°
2026-05-04 02:15 26.87616 36.04031 43035 ft 521 kts 135°
2026-05-04 02:16 26.85923 36.05946 42794 ft 519 kts 136°
2026-05-04 02:16 26.83402 36.08871 42906 ft 514 kts 137°
2026-05-04 02:16 26.78359 36.14606 42893 ft 521 kts 137°
2026-05-04 02:17 26.73899 36.19677 42891 ft 527 kts 137°
2026-05-04 02:17 26.70128 36.23957 42891 ft 532 kts 137°
2026-05-04 02:18 26.65386 36.29335 42892 ft 538 kts 137°
2026-05-04 02:18 26.60128 36.35295 42887 ft 539 kts 137°
2026-05-04 02:19 26.54862 36.41253 42887 ft 538 kts 137°
2026-05-04 02:19 26.49622 36.47172 42889 ft 537 kts 137°
2026-05-04 02:20 26.45231 36.52128 42890 ft 537 kts 137°
2026-05-04 02:20 26.39096 36.59041 42891 ft 538 kts 137°
2026-05-04 02:21 26.33812 36.64986 42892 ft 538 kts 137°
2026-05-04 02:21 26.28554 36.70894 42880 ft 537 kts 137°
2026-05-04 02:22 26.23272 36.76818 42882 ft 538 kts 137°
2026-05-04 02:22 26.17994 36.82732 42882 ft 538 kts 137°
2026-05-04 02:23 26.12743 36.88609 42882 ft 538 kts 137°
2026-05-04 02:23 26.07535 36.94429 42883 ft 537 kts 137°
2026-05-04 02:24 26.02279 37.00293 42885 ft 537 kts 137°
2026-05-04 02:24 25.97835 37.05244 42885 ft 538 kts 137°
2026-05-04 02:25 25.91683 37.12091 42887 ft 539 kts 137°
2026-05-04 02:25 25.86396 37.17968 42882 ft 539 kts 137°
2026-05-04 02:26 25.82171 37.23137 42903 ft 541 kts 129°
2026-05-04 02:26 25.77336 37.31302 42921 ft 543 kts 121°
2026-05-04 02:27 25.73543 37.38572 42944 ft 544 kts 120°
2026-05-04 02:27 25.69859 37.45854 42968 ft 544 kts 120°
2026-05-04 02:28 25.66772 37.52006 42969 ft 544 kts 119°
2026-05-04 02:28 25.62492 37.60552 42970 ft 544 kts 119°
2026-05-04 02:29 25.58822 37.67871 42959 ft 544 kts 120°
2026-05-04 02:29 25.55479 37.74529 42961 ft 544 kts 120°
2026-05-04 02:30 25.52068 37.81317 42962 ft 544 kts 120°
2026-05-04 02:30 25.50580 37.84275 42962 ft 544 kts 120°
2026-05-04 02:31 25.49019 37.87372 42962 ft 544 kts 120°
2026-05-04 02:31 25.45337 37.94676 42964 ft 544 kts 120°
2026-05-04 02:32 25.43608 37.98101 42964 ft 544 kts 120°
2026-05-04 02:32 25.39916 38.05409 42940 ft 544 kts 120°
2026-05-04 02:33 25.37178 38.10821 42916 ft 544 kts 120°
2026-05-04 02:33 25.34319 38.16467 42894 ft 544 kts 120°
2026-05-04 02:34 25.30611 38.23777 42864 ft 544 kts 120°
2026-05-04 02:34 25.28517 38.27896 42847 ft 544 kts 120°
2026-05-04 02:35 25.24821 38.35165 42835 ft 543 kts 120°
2026-05-04 02:35 25.21109 38.42453 42836 ft 544 kts 120°
2026-05-04 02:36 25.17902 38.48742 42836 ft 544 kts 120°
2026-05-04 02:36 25.15125 38.54171 42837 ft 544 kts 120°
2026-05-04 02:37 25.11415 38.61416 42838 ft 543 kts 120°
2026-05-04 02:37 25.07705 38.68650 42846 ft 540 kts 120°
2026-05-04 02:38 25.04027 38.75807 42904 ft 535 kts 120°
2026-05-04 02:38 25.00370 38.82916 42962 ft 532 kts 121°
2026-05-04 02:39 24.96759 38.89921 43014 ft 529 kts 121°
2026-05-04 02:39 24.95510 38.92337 43017 ft 529 kts 121°
2026-05-04 02:40 24.92490 38.98181 43020 ft 531 kts 121°
2026-05-04 02:40 24.89420 39.04109 43020 ft 534 kts 120°
2026-05-04 02:41 24.85718 39.11251 43018 ft 536 kts 120°
2026-05-04 02:41 24.82044 39.18328 43019 ft 537 kts 120°
2026-05-04 02:42 24.78700 39.24764 43019 ft 537 kts 120°
2026-05-04 02:42 24.75296 39.31306 43021 ft 536 kts 120°
2026-05-04 02:43 24.72800 39.36096 43021 ft 536 kts 120°
2026-05-04 02:43 24.69431 39.42556 43022 ft 536 kts 120°
2026-05-04 02:44 24.67872 39.45542 43022 ft 536 kts 120°
2026-05-04 02:44 24.64126 39.52709 43023 ft 536 kts 120°
2026-05-04 02:45 24.60805 39.59053 43024 ft 536 kts 120°
2026-05-04 02:45 24.57183 39.66206 43028 ft 537 kts 116°
2026-05-04 02:46 24.54917 39.72976 43030 ft 538 kts 104°
2026-05-04 02:46 24.53854 39.79610 43031 ft 537 kts 95°
2026-05-04 02:47 24.53108 39.87798 43017 ft 537 kts 94°
2026-05-04 02:47 24.52336 39.95964 43018 ft 537 kts 95°
2026-05-04 02:48 24.51550 40.04122 43018 ft 537 kts 95°
2026-05-04 02:48 24.50754 40.12297 43019 ft 537 kts 95°
2026-05-04 02:49 24.49955 40.20445 43020 ft 537 kts 95°
2026-05-04 02:49 24.49148 40.28621 43021 ft 537 kts 95°
2026-05-04 02:50 24.48341 40.36755 43022 ft 537 kts 95°
2026-05-04 02:50 24.47528 40.44903 43023 ft 537 kts 95°
2026-05-04 02:51 24.46711 40.53044 43024 ft 537 kts 95°
2026-05-04 02:51 24.45888 40.61198 43025 ft 537 kts 95°
2026-05-04 02:52 24.45060 40.69360 43014 ft 537 kts 95°
2026-05-04 02:52 24.44228 40.77500 43016 ft 537 kts 95°
2026-05-04 02:53 24.43396 40.85593 43017 ft 538 kts 95°
2026-05-04 02:53 24.42553 40.93746 43018 ft 539 kts 95°
2026-05-04 02:54 24.41701 41.01949 43019 ft 541 kts 95°
2026-05-04 02:54 24.40842 41.10182 43020 ft 541 kts 95°
2026-05-04 02:55 24.39560 41.22424 43021 ft 541 kts 95°
2026-05-04 02:56 24.38697 41.30594 43022 ft 541 kts 95°
2026-05-04 02:56 24.37871 41.38385 43023 ft 541 kts 95°
2026-05-04 02:57 24.37001 41.46542 43024 ft 541 kts 95°
2026-05-04 02:57 24.36124 41.54723 43025 ft 541 kts 95°
2026-05-04 02:58 24.35479 41.60712 43025 ft 541 kts 95°
2026-05-04 02:58 24.34592 41.68916 43014 ft 541 kts 95°
2026-05-04 02:59 24.33703 41.77074 43016 ft 541 kts 96°
2026-05-04 02:59 24.32221 41.85170 43016 ft 542 kts 104°
2026-05-04 03:00 24.30275 41.93081 43017 ft 542 kts 105°
2026-05-04 03:00 24.28215 42.01057 43019 ft 542 kts 105°
2026-05-04 03:01 24.26139 42.08979 43020 ft 542 kts 105°
2026-05-04 03:01 24.24043 42.16922 43021 ft 542 kts 105°
2026-05-04 03:02 24.21943 42.24856 43022 ft 542 kts 105°
2026-05-04 03:02 24.19849 42.32747 43023 ft 542 kts 105°
2026-05-04 03:03 24.17732 42.40704 43024 ft 542 kts 105°
2026-05-04 03:03 24.15621 42.48621 43025 ft 542 kts 105°
2026-05-04 03:04 24.13508 42.56529 43026 ft 542 kts 105°
2026-05-04 03:04 24.11400 42.64399 43027 ft 542 kts 105°
2026-05-04 03:05 24.09265 42.72354 43017 ft 542 kts 106°
2026-05-04 03:05 24.07128 42.80294 43018 ft 542 kts 106°
2026-05-04 03:06 24.05001 42.88180 43018 ft 542 kts 106°
2026-05-04 03:06 24.02862 42.96092 43019 ft 542 kts 106°
2026-05-04 03:07 24.00719 43.04024 43020 ft 542 kts 106°
2026-05-04 03:07 23.98593 43.11863 43020 ft 540 kts 107°
2026-05-04 03:08 23.96449 43.19745 43020 ft 539 kts 108°
2026-05-04 03:08 23.94317 43.27546 43021 ft 538 kts 108°
2026-05-04 03:09 23.92172 43.35378 43022 ft 539 kts 108°
2026-05-04 03:09 23.90032 43.43189 43023 ft 539 kts 108°
2026-05-04 03:10 23.87888 43.50996 43024 ft 539 kts 108°
2026-05-04 03:10 23.85727 43.58846 43025 ft 539 kts 108°
2026-05-04 03:11 23.83556 43.66722 43019 ft 539 kts 108°
2026-05-04 03:11 23.81403 43.74514 43015 ft 538 kts 108°
2026-05-04 03:12 23.79247 43.82296 43016 ft 538 kts 108°
2026-05-04 03:12 23.77695 43.90329 43027 ft 540 kts 98°
2026-05-04 03:13 23.76834 43.98441 43019 ft 541 kts 96°
2026-05-04 03:13 23.76148 44.06601 43019 ft 541 kts 95°
2026-05-04 03:14 23.75512 44.14772 43020 ft 541 kts 95°
2026-05-04 03:14 23.74888 44.22957 43021 ft 541 kts 95°
2026-05-04 03:15 23.74266 44.31117 43022 ft 541 kts 95°
2026-05-04 03:15 23.73643 44.39270 43023 ft 541 kts 95°
2026-05-04 03:16 23.73015 44.47423 43024 ft 541 kts 95°
2026-05-04 03:16 23.72385 44.55566 43024 ft 541 kts 95°
2026-05-04 03:17 23.71748 44.63723 43025 ft 541 kts 95°
2026-05-04 03:17 23.71105 44.71928 43015 ft 540 kts 95°
2026-05-04 03:18 23.70459 44.80094 43016 ft 541 kts 95°
2026-05-04 03:18 23.69809 44.88251 43017 ft 541 kts 95°
2026-05-04 03:19 23.69164 44.96381 43018 ft 538 kts 95°
2026-05-04 03:19 23.68513 45.04480 43019 ft 535 kts 96°
2026-05-04 03:20 23.67860 45.12529 43020 ft 531 kts 96°
2026-05-04 03:20 23.67202 45.20508 43021 ft 531 kts 96°
2026-05-04 03:21 23.66537 45.28553 43022 ft 531 kts 96°
2026-05-04 03:21 23.65871 45.36585 43022 ft 532 kts 96°
2026-05-04 03:22 23.65203 45.44584 43023 ft 531 kts 96°
2026-05-04 03:22 23.64528 45.52626 43024 ft 531 kts 96°
2026-05-04 03:23 23.63854 45.60604 43025 ft 531 kts 96°
2026-05-04 03:23 23.63169 45.68663 43007 ft 531 kts 97°
2026-05-04 03:24 23.62488 45.76636 43000 ft 531 kts 97°
2026-05-04 03:24 23.61801 45.84638 42992 ft 531 kts 97°
2026-05-04 03:25 23.61106 45.92675 42991 ft 531 kts 97°
2026-05-04 03:25 23.60410 46.00680 42992 ft 531 kts 97°
2026-05-04 03:26 23.59712 46.08653 42992 ft 531 kts 97°
2026-05-04 03:26 23.59008 46.16651 42990 ft 531 kts 97°
2026-05-04 03:27 23.58297 46.24685 42987 ft 531 kts 97°
2026-05-04 03:27 23.57583 46.32693 42984 ft 531 kts 97°
2026-05-04 03:28 23.56869 46.40670 42984 ft 531 kts 97°
2026-05-04 03:28 23.56147 46.48675 42985 ft 531 kts 97°
2026-05-04 03:29 23.55420 46.56691 42985 ft 531 kts 97°
2026-05-04 03:29 23.54695 46.64639 42986 ft 531 kts 97°
2026-05-04 03:30 23.53960 46.72655 42977 ft 531 kts 97°
2026-05-04 03:30 23.53220 46.80670 42978 ft 531 kts 97°
2026-05-04 03:31 23.52484 46.88599 42978 ft 529 kts 97°
2026-05-04 03:31 23.51740 46.96577 42979 ft 526 kts 97°
2026-05-04 03:32 23.51003 47.04433 42980 ft 524 kts 97°
2026-05-04 03:32 23.50257 47.12345 42981 ft 524 kts 97°
2026-05-04 03:33 23.49511 47.20211 42981 ft 524 kts 97°
2026-05-04 03:33 23.48757 47.28109 42982 ft 524 kts 97°
2026-05-04 03:34 23.48003 47.35978 42982 ft 524 kts 97°
2026-05-04 03:34 23.47247 47.43824 42983 ft 524 kts 97°
2026-05-04 03:35 23.46479 47.51736 42984 ft 524 kts 97°
2026-05-04 03:35 23.45710 47.59644 42984 ft 524 kts 97°
2026-05-04 03:36 23.44998 47.66924 42980 ft 524 kts 98°
2026-05-04 03:36 23.44220 47.74824 42977 ft 524 kts 98°
2026-05-04 03:37 23.43447 47.82648 42978 ft 524 kts 98°
2026-05-04 03:37 23.42662 47.90547 42979 ft 524 kts 98°
2026-05-04 03:38 23.41874 47.98429 42979 ft 524 kts 98°
2026-05-04 03:38 23.41078 48.06357 42980 ft 524 kts 98°
2026-05-04 03:39 23.40287 48.14196 42980 ft 524 kts 98°
2026-05-04 03:39 23.39487 48.22084 42981 ft 524 kts 98°
2026-05-04 03:40 23.38686 48.29942 42982 ft 524 kts 98°
2026-05-04 03:40 23.38129 48.37848 42986 ft 525 kts 94°
2026-05-04 03:41 23.37800 48.45745 42983 ft 525 kts 94°
2026-05-04 03:41 23.37474 48.53702 42984 ft 525 kts 94°
2026-05-04 03:42 23.37148 48.61628 42984 ft 525 kts 94°
2026-05-04 03:42 23.36819 48.69556 42976 ft 525 kts 94°
2026-05-04 03:43 23.36486 48.77467 42977 ft 525 kts 94°
2026-05-04 03:43 23.36149 48.85379 42978 ft 525 kts 94°
2026-05-04 03:44 23.36083 48.93322 42991 ft 527 kts 86°
2026-05-04 03:44 23.37458 49.01136 42994 ft 528 kts 72°
2026-05-04 03:45 23.40265 49.08521 42988 ft 527 kts 64°
2026-05-04 03:45 23.43426 49.15696 42980 ft 526 kts 64°
2026-05-04 03:46 23.46578 49.22829 42977 ft 525 kts 64°
2026-05-04 03:46 23.49732 49.29973 42950 ft 525 kts 64°
2026-05-04 03:47 23.52896 49.37145 42921 ft 525 kts 64°
2026-05-04 03:47 23.56031 49.44263 42892 ft 525 kts 64°
2026-05-04 03:48 23.59191 49.51448 42887 ft 525 kts 64°
2026-05-04 03:48 23.62339 49.58615 42888 ft 525 kts 64°
2026-05-04 03:49 23.65497 49.65818 42880 ft 520 kts 64°
2026-05-04 03:49 23.67014 49.69281 42852 ft 503 kts 64°
2026-05-04 03:49 23.68498 49.72675 42852 ft 486 kts 64°
2026-05-04 03:49 23.69934 49.75957 42658 ft 483 kts 64°
2026-05-04 03:50 23.71390 49.79288 42417 ft 488 kts 64°
2026-05-04 03:50 23.72849 49.82628 42181 ft 491 kts 64°
2026-05-04 03:50 23.74317 49.85989 41935 ft 492 kts 64°
2026-05-04 03:50 23.75780 49.89344 41687 ft 491 kts 64°
2026-05-04 03:51 23.77237 49.92688 41438 ft 490 kts 64°
2026-05-04 03:51 23.78698 49.96043 41190 ft 490 kts 64°
2026-05-04 03:51 23.80169 49.99422 40942 ft 490 kts 64°
2026-05-04 03:51 23.81629 50.02780 40697 ft 490 kts 64°
2026-05-04 03:52 23.83078 50.06113 40454 ft 490 kts 64°
2026-05-04 03:52 23.84528 50.09452 40210 ft 490 kts 64°
2026-05-04 03:52 23.85997 50.12838 39964 ft 490 kts 64°
2026-05-04 03:52 23.87445 50.16179 39722 ft 490 kts 64°
2026-05-04 03:53 23.88911 50.19561 39477 ft 490 kts 64°
2026-05-04 03:53 23.90359 50.22906 39235 ft 490 kts 64°
2026-05-04 03:53 23.91806 50.26249 38994 ft 490 kts 64°
2026-05-04 03:53 23.93263 50.29620 38751 ft 490 kts 64°
2026-05-04 03:54 23.94726 50.33006 38508 ft 490 kts 64°
2026-05-04 03:54 23.96178 50.36369 38267 ft 490 kts 64°
2026-05-04 03:54 23.97631 50.39738 38026 ft 490 kts 64°
2026-05-04 03:54 23.99093 50.43130 37784 ft 490 kts 64°
2026-05-04 03:55 24.00547 50.46505 37543 ft 490 kts 64°
2026-05-04 03:55 24.01983 50.49840 37344 ft 487 kts 64°
2026-05-04 03:55 24.03401 50.53140 37298 ft 471 kts 64°
2026-05-04 03:55 24.04773 50.56332 37210 ft 456 kts 64°
2026-05-04 03:56 24.06100 50.59421 37122 ft 449 kts 64°
2026-05-04 03:56 24.08781 50.65666 36953 ft 456 kts 64°
2026-05-04 03:56 24.10135 50.68821 36816 ft 457 kts 64°
2026-05-04 03:57 24.11483 50.71967 36651 ft 457 kts 64°
2026-05-04 03:57 24.12832 50.75120 36466 ft 456 kts 64°
2026-05-04 03:57 24.14180 50.78270 36262 ft 456 kts 64°
2026-05-04 03:57 24.15508 50.81376 36042 ft 456 kts 64°
2026-05-04 03:58 24.18200 50.87681 35537 ft 457 kts 64°
2026-05-04 03:58 24.19545 50.90834 35255 ft 458 kts 64°
2026-05-04 03:58 24.20895 50.94000 34951 ft 459 kts 64°
2026-05-04 03:59 24.22238 50.97154 34629 ft 460 kts 64°
2026-05-04 03:59 24.23602 51.00359 34279 ft 462 kts 64°
2026-05-04 03:59 24.24941 51.03506 33916 ft 463 kts 64°
2026-05-04 03:59 24.26295 51.06690 33527 ft 463 kts 64°
2026-05-04 04:00 24.27657 51.09895 33113 ft 464 kts 64°
2026-05-04 04:00 24.29022 51.13111 32676 ft 465 kts 64°
2026-05-04 04:00 24.30379 51.16307 32219 ft 466 kts 64°
2026-05-04 04:00 24.31888 51.19465 31709 ft 466 kts 58°
2026-05-04 04:01 24.33714 51.22373 31212 ft 465 kts 51°
2026-05-04 04:01 24.35764 51.25060 30876 ft 462 kts 47°
2026-05-04 04:01 24.40115 51.30112 30751 ft 468 kts 44°
2026-05-04 04:02 24.42417 51.32624 29846 ft 476 kts 43°
2026-05-04 04:02 24.44817 51.35187 29026 ft 475 kts 42°
2026-05-04 04:02 24.47177 51.37676 28292 ft 472 kts 42°
2026-05-04 04:02 24.49549 51.40110 27673 ft 466 kts 39°
2026-05-04 04:03 24.52125 51.42243 27135 ft 460 kts 32°
2026-05-04 04:03 24.54825 51.44097 26606 ft 456 kts 28°
2026-05-04 04:03 24.57533 51.45795 26088 ft 452 kts 27°
2026-05-04 04:03 24.59822 51.47158 25658 ft 449 kts 26°
2026-05-04 04:04 24.62611 51.48692 25078 ft 445 kts 18°
2026-05-04 04:04 24.65603 51.49244 24489 ft 432 kts 354°
2026-05-04 04:04 24.68452 51.48502 23990 ft 420 kts 331°
2026-05-04 04:04 24.70855 51.46783 23524 ft 413 kts 318°
2026-05-04 04:05 24.73028 51.44748 23018 ft 409 kts 314°
2026-05-04 04:05 24.75063 51.42600 22518 ft 405 kts 311°
2026-05-04 04:05 24.77016 51.40386 22025 ft 402 kts 310°
2026-05-04 04:05 24.78904 51.38144 21544 ft 399 kts 309°
2026-05-04 04:06 24.80747 51.35886 21073 ft 396 kts 308°
2026-05-04 04:06 24.82559 51.33620 20612 ft 394 kts 308°
2026-05-04 04:06 24.84346 51.31355 20162 ft 391 kts 307°
2026-05-04 04:06 24.86109 51.29097 19722 ft 389 kts 308°
2026-05-04 04:07 24.88171 51.27142 19243 ft 393 kts 327°
2026-05-04 04:07 24.90573 51.25753 18842 ft 392 kts 330°
2026-05-04 04:07 24.92994 51.24410 18409 ft 390 kts 331°
2026-05-04 04:07 24.95421 51.23117 17980 ft 388 kts 332°
2026-05-04 04:08 24.97859 51.21848 17576 ft 386 kts 332°
2026-05-04 04:08 25.00261 51.20613 17178 ft 386 kts 333°
2026-05-04 04:08 25.02697 51.19369 16773 ft 386 kts 333°
2026-05-04 04:08 25.05140 51.18124 16364 ft 384 kts 334°
2026-05-04 04:09 25.07546 51.16899 15959 ft 383 kts 334°
2026-05-04 04:09 25.09003 51.16157 15713 ft 383 kts 334°
2026-05-04 04:09 25.11402 51.14936 15304 ft 380 kts 335°
2026-05-04 04:09 25.13770 51.13731 14897 ft 377 kts 335°
2026-05-04 04:10 25.16159 51.12517 14486 ft 374 kts 335°
2026-05-04 04:10 25.18517 51.11317 14081 ft 371 kts 335°
2026-05-04 04:10 25.20840 51.10137 13635 ft 369 kts 337°
2026-05-04 04:10 25.23301 51.09531 12846 ft 368 kts
2026-05-04 04:11 25.25737 51.10149 12323 ft 359 kts 26°
2026-05-04 04:11 25.27655 51.11786 11899 ft 347 kts 51°
2026-05-04 04:11 25.28693 51.14052 11506 ft 318 kts 78°
2026-05-04 04:11 25.28646 51.16389 11218 ft 297 kts 107°
2026-05-04 04:12 25.27958 51.18496 10962 ft 289 kts 107°
2026-05-04 04:12 25.27598 51.20193 10735 ft 284 kts 100°
2026-05-04 04:12 25.27366 51.22104 10482 ft 283 kts 96°
2026-05-04 04:12 25.27226 51.24277 10190 ft 282 kts 95°
2026-05-04 04:13 25.26878 51.26407 9952 ft 280 kts 104°
2026-05-04 04:13 25.26427 51.28494 9723 ft 280 kts 104°
2026-05-04 04:13 25.25980 51.30579 9493 ft 280 kts 104°
2026-05-04 04:13 25.25536 51.32652 9265 ft 279 kts 104°
2026-05-04 04:14 25.25090 51.34737 9037 ft 278 kts 104°
2026-05-04 04:14 25.24642 51.36834 8809 ft 278 kts 104°
2026-05-04 04:14 25.24203 51.38887 8586 ft 277 kts 104°
2026-05-04 04:14 25.23759 51.40963 8363 ft 277 kts 104°
2026-05-04 04:15 25.23320 51.43019 8142 ft 276 kts 104°
2026-05-04 04:15 25.22873 51.45105 7920 ft 276 kts 104°
2026-05-04 04:15 25.22240 51.47055 7603 ft 273 kts 126°
2026-05-04 04:15 25.20829 51.48425 7338 ft 269 kts 150°
2026-05-04 04:16 25.19176 51.49403 7055 ft 268 kts 154°
2026-05-04 04:16 25.17495 51.50274 6764 ft 267 kts 156°
2026-05-04 04:16 25.15800 51.51093 6474 ft 266 kts 158°
2026-05-04 04:16 25.14114 51.51876 6188 ft 265 kts 158°
2026-05-04 04:17 25.12410 51.52650 5899 ft 264 kts 159°
2026-05-04 04:17 25.10696 51.53418 5604 ft 262 kts 159°
2026-05-04 04:17 25.09026 51.54162 5306 ft 255 kts 159°
2026-05-04 04:17 25.07414 51.54876 5072 ft 246 kts 159°
2026-05-04 04:18 25.05863 51.55563 4817 ft 237 kts 159°
2026-05-04 04:18 25.04350 51.56231 4528 ft 231 kts 160°
2026-05-04 04:18 25.02886 51.56876 4260 ft 226 kts 160°
2026-05-04 04:18 25.01346 51.57558 4063 ft 244 kts 157°
2026-05-04 04:19 25.00107 51.58749 3951 ft 246 kts 121°
2026-05-04 04:19 24.99787 51.60567 3837 ft 245 kts 83°
2026-05-04 04:19 25.00154 51.62412 3767 ft 246 kts 73°
2026-05-04 04:19 25.00661 51.64206 3671 ft 246 kts 70°
2026-05-04 04:20 25.01228 51.65988 3596 ft 245 kts 69°
2026-05-04 04:20 25.01859 51.67739 3527 ft 237 kts 60°
2026-05-04 04:20 25.03022 51.68873 3297 ft 218 kts 17°
2026-05-04 04:20 25.04434 51.68947 3153 ft 194 kts 348°
2026-05-04 04:21 25.05669 51.68668 3109 ft 172 kts 344°
2026-05-04 04:21 25.06814 51.68338 3010 ft 168 kts 341°
2026-05-04 04:21 25.07942 51.67965 2928 ft 168 kts 340°
2026-05-04 04:21 25.09045 51.67564 2862 ft 168 kts 338°
2026-05-04 04:22 25.10182 51.67211 2796 ft 169 kts 343°
2026-05-04 04:22 25.11296 51.66850 2734 ft 168 kts 336°
2026-05-04 04:22 25.12382 51.66363 2675 ft 168 kts 335°
2026-05-04 04:22 25.13451 51.65876 2616 ft 167 kts 334°
2026-05-04 04:23 25.14526 51.65362 2557 ft 167 kts 334°
2026-05-04 04:23 25.15589 51.64867 2499 ft 167 kts 334°
2026-05-04 04:23 25.16666 51.64417 2396 ft 166 kts 339°
2026-05-04 04:23 25.17767 51.63988 2218 ft 166 kts 336°
2026-05-04 04:24 25.18839 51.63540 1989 ft 166 kts 336°
2026-05-04 04:24 25.19909 51.63067 1635 ft 164 kts 335°
2026-05-04 04:24 25.20949 51.62609 1340 ft 160 kts 336°
2026-05-04 04:24 25.21963 51.62156 1064 ft 152 kts 335°
2026-05-04 04:25 25.22907 51.61725 797 ft 146 kts 335°
2026-05-04 04:25 25.23839 51.61314 547 ft 140 kts 336°
2026-05-04 04:25 25.24729 51.60918 324 ft 141 kts 335°
2026-05-04 04:25 25.25638 51.60502 98 ft 142 kts 336°
2026-05-04 04:26 25.26536 51.60109 37 ft 128 kts 336°
2026-05-04 04:26 25.27294 51.59775 27 ft 102 kts 335°
2026-05-04 04:26 25.27844 51.59528 27 ft 68 kts 339°
2026-05-04 04:26 25.28181 51.59381 27 ft 40 kts 338°
2026-05-04 04:27 25.28392 51.59289 27 ft 29 kts 338°
2026-05-04 04:27 25.28556 51.59261 27 ft 21 kts 37°
2026-05-04 04:27 25.28580 51.59396 27 ft 18 kts 136°
2026-05-04 04:27 25.28456 51.59460 27 ft 21 kts 158°
2026-05-04 04:28 25.28309 51.59523 27 ft 24 kts 160°
2026-05-04 04:28 25.28143 51.59598 27 ft 26 kts 158°
2026-05-04 04:28 25.27960 51.59680 27 ft 29 kts 158°
2026-05-04 04:28 25.27761 51.59766 27 ft 32 kts 159°
2026-05-04 04:29 25.27540 51.59864 27 ft 35 kts 159°
2026-05-04 04:29 25.27332 51.59958 27 ft 14 kts 160°
2026-05-04 04:29 25.27231 51.60001 27 ft 16 kts 158°
2026-05-04 04:29 25.27117 51.60053 27 ft 19 kts 159°
2026-05-04 04:30 25.27037 51.60128 27 ft 13 kts 89°
2026-05-04 04:30 25.27068 51.60241 27 ft 12 kts 84°
2026-05-04 04:30 25.27025 51.60309 27 ft 10 kts 136°
2026-05-04 04:30 25.27028 51.60384 27 ft 9 kts 68°
2026-05-04 04:31 25.27051 51.60452 27 ft 9 kts 68°
2026-05-04 04:31 25.27076 51.60519 27 ft 10 kts 69°
2026-05-04 04:31 25.27105 51.60600 27 ft 12 kts 68°
2026-05-04 04:31 25.27090 51.60673 27 ft 12 kts 136°
2026-05-04 04:32 25.27035 51.60768 27 ft 16 kts 113°
2026-05-04 04:32 25.26991 51.60883 27 ft 9 kts 111°
2026-05-04 04:32 25.26965 51.60910 27 ft 4 kts 172°
2026-05-04 04:32 25.26935 51.60903 27 ft 4 kts 198°
2026-05-04 04:33 25.26901 51.60888 27 ft 5 kts 203°
2026-05-04 04:33 25.26893 51.60885 27 ft 0 kts 203°